アトラス彗星

P/2020 X1 ( ATLAS )

English version
Home page
Updated on August 15, 2021

---------------------------------------------------------------------

・ プロフィール

発見日 2020年12月4日
発見光度 18.9等
発見者 Asteroid Terrestrial-Impact Last Alert System (ATLAS) search program

・ 写真集

・ 軌道要素

Epoch 2021 July 5.0 TT = JDT 2459400.5
T 2020 July 20.27725 TT                                 Rudenko
q   2.8720471            (2000.0)            P               Q
n   0.10237458     Peri.  323.24539     +0.86993635     -0.23093082
a   4.5255840      Node    56.02636     +0.47365129     +0.63732941
e   0.3653754      Incl.   31.69864     -0.13735069     +0.73517493
P   9.63
From 98 observations 2020 Dec. 1-21, mean residual 0".5.

・ 光度変化

        m1 = 12.0 + 5 logΔ + 10.0 log r

---------------------------------------------------------------------

軌道要素はM.P.E.C. 2021-P47に掲載されたものです。
光度グラフはComet for Windowsで作成したものです。

---------------------------------------------------------------------

Copyright(C) Seiichi Yoshida (comet@aerith.net). All rights reserved.